Radiation Dose measured at exhaust stack monitor of Fukushima Daiichi Nuclear Power Station
Date,Time,Unit 5 6 shared exhaust cylinders,Wind Direction,Wind Velocity(m/s)
2021/06/10,00:00,3.9,north-northeast,1.2
2021/06/10,00:10,4.1,north-northeast,1.5
2021/06/10,00:20,4.1,north-northwest,1.5
2021/06/10,00:30,3.8,north-northeast,1.2
2021/06/10,00:40,3.9,east-northeast,1.5
2021/06/10,00:50,3.8,north-northeast,0.9
2021/06/10,01:00,3.8,north-northwest,1.1
2021/06/10,01:10,3.9,north-northwest,1.2
2021/06/10,01:20,3.9,northwest,1.1
2021/06/10,01:30,3.9,north,1.2
2021/06/10,01:40,3.7,north,1.1
2021/06/10,01:50,4.0,north,0.9
2021/06/10,02:00,3.9,north-northwest,0.9
2021/06/10,02:10,3.8,north,1.2
2021/06/10,02:20,4.0,-,CALM
2021/06/10,02:30,3.9,northeast,0.9
2021/06/10,02:40,3.9,north-northeast,0.6
2021/06/10,02:50,3.8,northeast,0.9
2021/06/10,03:00,3.9,east,0.8
2021/06/10,03:10,3.9,south-southeast,0.9
2021/06/10,03:20,3.8,south-southwest,0.6
2021/06/10,03:30,4.0,south,1.7
2021/06/10,03:40,3.8,south,1.9
2021/06/10,03:50,4.0,south,1.7
2021/06/10,04:00,3.8,south-southwest,1.7
2021/06/10,04:10,3.8,southwest,1.5
2021/06/10,04:20,3.8,southwest,1.2
2021/06/10,04:30,3.9,south-southeast,1.2
2021/06/10,04:40,3.8,west,1.2
2021/06/10,04:50,3.8,southwest,1.7
2021/06/10,05:00,3.9,south,1.5
2021/06/10,05:10,3.8,south-southeast,0.6
2021/06/10,05:20,3.9,south-southwest,1.2
2021/06/10,05:30,4.0,west-northwest,0.6
2021/06/10,05:40,3.9,southwest,1.2
2021/06/10,05:50,3.8,south,1.2
2021/06/10,06:00,3.8,southwest,1.5
2021/06/10,06:10,3.8,west,1.2
2021/06/10,06:20,4.0,southwest,1.2
2021/06/10,06:30,4.0,west,1.2
2021/06/10,06:40,3.9,south,1.5
2021/06/10,06:50,3.8,southeast,1.2
2021/06/10,07:00,3.9,east-southeast,2.5
2021/06/10,07:10,3.9,east-southeast,2.3
2021/06/10,07:20,3.9,southeast,3.0
2021/06/10,07:30,3.6,southeast,2.6
2021/06/10,07:40,3.8,southeast,2.6
2021/06/10,07:50,4.0,south-southeast,3.1
2021/06/10,08:00,3.8,southeast,3.3
2021/06/10,08:10,3.9,southeast,3.0
2021/06/10,08:20,3.8,south-southeast,3.8
2021/06/10,08:30,3.8,south-southeast,2.9
2021/06/10,08:40,3.8,southeast,2.6
2021/06/10,08:50,3.8,southeast,3.1
2021/06/10,09:00,3.8,southeast,2.6
2021/06/10,09:10,3.8,southeast,2.3
2021/06/10,09:20,3.9,southeast,3.7
2021/06/10,09:30,3.9,southeast,3.3
2021/06/10,09:40,4.0,south-southeast,3.4
2021/06/10,09:50,3.9,east-southeast,3.2
2021/06/10,10:00,3.9,south-southeast,3.1
2021/06/10,10:10,3.8,south-southeast,4.8
2021/06/10,10:20,3.9,south-southeast,4.5
2021/06/10,10:30,3.9,southeast,4.2
2021/06/10,10:40,4.1,south-southeast,4.6
2021/06/10,10:50,4.0,south-southeast,4.8
2021/06/10,11:00,3.9,south-southeast,4.5
2021/06/10,11:10,3.9,south-southeast,4.4
2021/06/10,11:20,4.0,south-southeast,5.0
2021/06/10,11:30,3.8,south-southeast,5.2
2021/06/10,11:40,3.8,south-southeast,5.4
2021/06/10,11:50,4.0,south-southeast,5.8
2021/06/10,12:00,3.8,south-southeast,5.3
2021/06/10,12:10,3.8,south-southeast,5.6
2021/06/10,12:20,3.7,south-southeast,5.1
2021/06/10,12:30,3.9,south-southeast,5.4
2021/06/10,12:40,3.9,south-southeast,6.3
2021/06/10,12:50,3.9,southeast,6.5
2021/06/10,13:00,3.9,south-southeast,6.5
2021/06/10,13:10,3.9,south-southeast,7.1
2021/06/10,13:20,3.9,south-southeast,6.2
2021/06/10,13:30,3.9,south-southeast,6.9
2021/06/10,13:40,3.9,south-southeast,7.2
2021/06/10,13:50,3.8,south-southeast,7.1
2021/06/10,14:00,3.9,south-southeast,6.8
2021/06/10,14:10,3.8,south-southeast,6.9
2021/06/10,14:20,3.9,south-southeast,7.2
2021/06/10,14:30,3.7,south-southeast,8.2
2021/06/10,14:40,3.8,south-southeast,8.3
2021/06/10,14:50,3.8,south-southeast,8.2
2021/06/10,15:00,3.9,south-southeast,8.0
2021/06/10,15:10,3.8,south-southeast,8.2
2021/06/10,15:20,3.8,south-southeast,7.4
2021/06/10,15:30,3.8,south-southeast,6.9
2021/06/10,15:40,4.0,south-southeast,7.7
2021/06/10,15:50,4.2,south-southeast,8.4
2021/06/10,16:00,3.9,south,7.8
2021/06/10,16:10,3.8,south-southeast,7.2
2021/06/10,16:20,3.9,south-southeast,8.6
2021/06/10,16:30,3.9,south-southeast,7.8
2021/06/10,16:40,3.9,south-southeast,7.2
2021/06/10,16:50,3.9,south-southeast,7.6
2021/06/10,17:00,3.9,south-southeast,8.6
2021/06/10,17:10,4.0,south,8.1
2021/06/10,17:20,3.8,south,8.9
2021/06/10,17:30,3.9,south,8.3
2021/06/10,17:40,4.0,south-southeast,8.0
2021/06/10,17:50,3.7,south,7.9
2021/06/10,18:00,3.9,south,7.7
2021/06/10,18:10,3.9,south,8.8
2021/06/10,18:20,3.9,south,7.9
2021/06/10,18:30,3.9,south-southeast,7.5
2021/06/10,18:40,3.8,south,7.4
2021/06/10,18:50,3.9,south,9.3
2021/06/10,19:00,3.8,south,8.2
2021/06/10,19:10,4.0,south,7.9
2021/06/10,19:20,3.7,south,7.8
2021/06/10,19:30,4.0,south,7.4
2021/06/10,19:40,3.8,south,7.4
2021/06/10,19:50,3.8,south,6.8
2021/06/10,20:00,3.8,south,7.2
2021/06/10,20:10,3.9,south,7.3
2021/06/10,20:20,3.8,south,7.2
2021/06/10,20:30,3.9,south,6.3
2021/06/10,20:40,3.8,south,6.5
2021/06/10,20:50,3.9,south,6.6
2021/06/10,21:00,3.8,south,6.4
2021/06/10,21:10,4.1,south,6.7
2021/06/10,21:20,3.9,south,6.3
2021/06/10,21:30,3.9,south,5.8
2021/06/10,21:40,3.9,south,5.9
2021/06/10,21:50,3.8,south,5.3
2021/06/10,22:00,4.0,south,5.4
2021/06/10,22:10,4.1,south,5.2
2021/06/10,22:20,3.8,south,5.6
2021/06/10,22:30,3.9,south,6.0
2021/06/10,22:40,3.9,south,6.1
2021/06/10,22:50,4.0,south,5.0
2021/06/10,23:00,3.8,south,5.6
2021/06/10,23:10,4.0,south,5.5
2021/06/10,23:20,3.9,south,5.8
2021/06/10,23:30,4.0,south,6.2
2021/06/10,23:40,3.8,south,6.1
2021/06/10,23:50,3.9,south,5.8
